Time,TemperatureF,DewpointF,PressureIn,WindDirection,WindDirectionDegrees,WindSpeedMPH,WindSpeedGustMPH,Humidity,HourlyPrecipIn,Conditions,Clouds,dailyrainin,SolarRadiationWatts/m^2,SoftwareType,DateUTC
2013-03-28 00:00:00,38.9,-99.9,20.00,NW,324,3.0,3.0,255,0.00,,,0.00,0,Wunderground v.1.15,2013-03-28 07:00:00,
2013-03-28 00:10:00,38.9,-99.9,20.00,NW,324,3.0,3.0,255,0.00,,,0.00,0,Wunderground v.1.15,2013-03-28 07:10:00,
2013-03-28 00:20:00,40.6,-99.9,20.00,NW,324,3.0,3.0,255,0.00,,,0.00,0,Wunderground v.1.15,2013-03-28 07:20:00,
2013-03-28 00:25:00,39.3,-99.9,20.00,NW,324,3.0,3.0,255,0.00,,,0.00,0,Wunderground v.1.15,2013-03-28 07:25:00,
2013-03-28 00:35:00,38.6,-99.9,20.00,NW,324,1.0,1.0,255,0.00,,,0.00,0,Wunderground v.1.15,2013-03-28 07:35:00,
2013-03-28 00:45:00,38.6,-99.9,20.00,NW,324,0.0,0.0,255,0.00,,,0.00,0,Wunderground v.1.15,2013-03-28 07:45:00,
2013-03-28 00:50:00,36.9,-99.9,20.00,NW,324,0.0,0.0,255,0.00,,,0.00,0,Wunderground v.1.15,2013-03-28 07:50:00,
2013-03-28 01:00:00,37.1,-99.9,20.00,NW,324,0.0,0.0,255,0.00,,,0.00,0,Wunderground v.1.15,2013-03-28 08:00:00,
2013-03-28 01:10:00,36.9,-99.9,20.00,NW,324,0.0,0.0,255,0.00,,,0.00,0,Wunderground v.1.15,2013-03-28 08:10:00,
2013-03-28 01:20:00,36.5,-99.9,20.00,NW,324,0.0,0.0,255,0.00,,,0.00,0,Wunderground v.1.15,2013-03-28 08:20:00,
2013-03-28 01:30:00,37.2,-99.9,20.00,NW,324,0.0,0.0,255,0.00,,,0.00,0,Wunderground v.1.15,2013-03-28 08:30:00,
2013-03-28 01:40:00,37.7,-99.9,20.00,NW,324,0.0,0.0,255,0.00,,,0.00,0,Wunderground v.1.15,2013-03-28 08:40:00,
2013-03-28 01:45:00,38.0,-99.9,20.00,NW,324,0.0,0.0,255,0.00,,,0.00,0,Wunderground v.1.15,2013-03-28 08:45:00,
2013-03-28 01:55:00,38.7,-99.9,20.00,NW,324,0.0,0.0,255,0.00,,,0.00,0,Wunderground v.1.15,2013-03-28 08:55:00,
2013-03-28 02:00:00,37.6,-99.9,20.00,NW,324,0.0,0.0,255,0.00,,,0.00,0,Wunderground v.1.15,2013-03-28 09:00:00,
2013-03-28 02:10:00,36.4,-99.9,20.00,NW,324,2.0,2.0,255,0.00,,,0.00,0,Wunderground v.1.15,2013-03-28 09:10:00,
2013-03-28 02:20:00,38.1,-99.9,20.00,NW,324,0.0,0.0,255,0.00,,,0.00,0,Wunderground v.1.15,2013-03-28 09:20:00,
2013-03-28 02:30:00,35.3,-99.9,20.00,NW,324,0.0,0.0,255,0.00,,,0.00,0,Wunderground v.1.15,2013-03-28 09:30:00,
2013-03-28 02:40:00,33.8,-99.9,20.00,NW,324,3.0,3.0,255,0.00,,,0.00,0,Wunderground v.1.15,2013-03-28 09:40:00,
2013-03-28 02:50:00,34.3,-99.9,20.00,NW,325,2.0,2.0,255,0.00,,,0.00,0,Wunderground v.1.15,2013-03-28 09:50:00,
2013-03-28 03:00:00,35.2,-99.9,20.00,NW,325,0.0,0.0,255,0.00,,,0.00,0,Wunderground v.1.15,2013-03-28 10:00:00,
2013-03-28 03:10:00,36.8,-99.9,20.00,NW,325,0.0,0.0,255,0.00,,,0.00,0,Wunderground v.1.15,2013-03-28 10:10:00,
2013-03-28 03:15:00,35.3,-99.9,20.00,NW,325,1.0,1.0,255,0.00,,,0.00,0,Wunderground v.1.15,2013-03-28 10:15:00,
2013-03-28 03:25:00,34.1,-99.9,20.00,NW,325,0.0,0.0,255,0.00,,,0.00,0,Wunderground v.1.15,2013-03-28 10:25:00,
2013-03-28 03:35:00,35.6,-99.9,20.00,NW,325,0.0,0.0,255,0.00,,,0.00,0,Wunderground v.1.15,2013-03-28 10:35:00,
2013-03-28 03:45:00,36.4,-99.9,20.00,NW,325,0.0,0.0,255,0.00,,,0.00,0,Wunderground v.1.15,2013-03-28 10:45:00,
2013-03-28 03:55:00,34.5,-99.9,20.00,NNW,328,5.0,5.0,255,0.00,,,0.00,0,Wunderground v.1.15,2013-03-28 10:55:00,
2013-03-28 04:00:00,34.9,-99.9,20.00,North,4,0.0,0.0,255,0.00,,,0.00,0,Wunderground v.1.15,2013-03-28 11:00:00,
2013-03-28 04:10:00,34.5,-99.9,20.00,North,4,2.0,2.0,255,0.00,,,0.00,0,Wunderground v.1.15,2013-03-28 11:10:00,
2013-03-28 04:15:00,34.6,-99.9,20.00,North,4,2.0,2.0,255,0.00,,,0.00,0,Wunderground v.1.15,2013-03-28 11:15:00,
2013-03-28 04:25:00,34.8,-99.9,20.00,NNE,33,3.0,3.0,255,0.00,,,0.00,0,Wunderground v.1.15,2013-03-28 11:25:00,
2013-03-28 04:35:00,35.3,-99.9,20.00,SE,125,0.0,4.0,255,0.00,,,0.00,0,Wunderground v.1.15,2013-03-28 11:35:00,
2013-03-28 04:45:00,35.5,-99.9,20.00,SE,125,0.0,1.0,255,0.00,,,0.00,0,Wunderground v.1.15,2013-03-28 11:45:00,
2013-03-28 04:55:00,35.3,-99.9,20.00,SE,125,1.0,1.0,255,0.00,,,0.00,0,Wunderground v.1.15,2013-03-28 11:55:00,
2013-03-28 05:00:00,36.2,-99.9,20.00,SE,125,0.0,0.0,255,0.00,,,0.00,0,Wunderground v.1.15,2013-03-28 12:00:00,
2013-03-28 05:10:00,35.5,-99.9,20.00,SE,125,0.0,0.0,255,0.00,,,0.00,0,Wunderground v.1.15,2013-03-28 12:10:00,
2013-03-28 05:20:00,36.0,-99.9,20.00,ESE,119,0.0,0.0,255,0.00,,,0.00,0,Wunderground v.1.15,2013-03-28 12:20:00,
2013-03-28 05:30:00,37.0,-99.9,20.00,ESE,119,0.0,0.0,255,0.00,,,0.00,0,Wunderground v.1.15,2013-03-28 12:30:00,
2013-03-28 05:40:00,35.8,-99.9,20.00,ESE,119,0.0,0.0,255,0.00,,,0.00,0,Wunderground v.1.15,2013-03-28 12:40:00,
2013-03-28 05:50:00,34.8,-99.9,20.00,ESE,119,0.0,0.0,255,0.00,,,0.00,0,Wunderground v.1.15,2013-03-28 12:50:00,
2013-03-28 06:00:00,35.6,-99.9,20.00,ESE,119,1.0,1.0,255,0.00,,,0.00,0,Wunderground v.1.15,2013-03-28 13:00:00,
2013-03-28 06:10:00,37.9,-99.9,20.00,ESE,119,0.0,0.0,255,0.00,,,0.00,0,Wunderground v.1.15,2013-03-28 13:10:00,
2013-03-28 06:20:00,36.0,-99.9,20.00,ESE,119,0.0,0.0,255,0.00,,,0.00,0,Wunderground v.1.15,2013-03-28 13:20:00,
2013-03-28 06:30:00,36.2,-99.9,20.00,ESE,119,0.0,0.0,255,0.00,,,0.00,0,Wunderground v.1.15,2013-03-28 13:30:00,
2013-03-28 06:40:00,35.2,-99.9,20.00,ESE,119,0.0,0.0,255,0.00,,,0.00,0,Wunderground v.1.15,2013-03-28 13:40:00,
2013-03-28 06:50:00,35.5,-99.9,20.00,ESE,119,3.0,3.0,255,0.00,,,0.00,0,Wunderground v.1.15,2013-03-28 13:50:00,
2013-03-28 07:00:00,35.1,-99.9,20.00,ESE,119,2.0,2.0,255,0.00,,,0.00,0,Wunderground v.1.15,2013-03-28 14:00:00,
2013-03-28 07:10:00,35.8,-99.9,20.00,ESE,119,0.0,0.0,255,0.00,,,0.00,0,Wunderground v.1.15,2013-03-28 14:10:00,
2013-03-28 07:20:00,36.2,-99.9,20.00,ESE,119,0.0,0.0,255,0.00,,,0.00,0,Wunderground v.1.15,2013-03-28 14:20:00,
2013-03-28 07:25:00,36.6,-99.9,20.00,ESE,119,0.0,0.0,255,0.00,,,0.00,0,Wunderground v.1.15,2013-03-28 14:25:00,
2013-03-28 07:35:00,38.1,-99.9,20.00,ESE,119,0.0,0.0,255,0.00,,,0.00,0,Wunderground v.1.15,2013-03-28 14:35:00,
2013-03-28 07:45:00,38.8,-99.9,20.00,ESE,119,0.0,0.0,255,0.00,,,0.00,0,Wunderground v.1.15,2013-03-28 14:45:00,
2013-03-28 07:55:00,38.9,-99.9,20.00,ESE,119,0.0,0.0,255,0.00,,,0.00,0,Wunderground v.1.15,2013-03-28 14:55:00,
2013-03-28 08:00:00,38.7,-99.9,20.00,ESE,119,0.0,0.0,255,0.00,,,0.00,0,Wunderground v.1.15,2013-03-28 15:00:00,
2013-03-28 08:10:00,39.1,-99.9,20.00,ESE,119,0.0,0.0,255,0.00,,,0.00,0,Wunderground v.1.15,2013-03-28 15:10:00,
2013-03-28 08:20:00,40.0,-99.9,20.00,ESE,119,0.0,0.0,255,0.00,,,0.00,0,Wunderground v.1.15,2013-03-28 15:20:00,
2013-03-28 08:30:00,41.9,-99.9,20.00,ESE,119,0.0,0.0,255,0.00,,,0.00,0,Wunderground v.1.15,2013-03-28 15:30:00,
2013-03-28 08:40:00,41.7,-99.9,20.00,ESE,119,0.0,3.0,255,0.00,,,0.00,0,Wunderground v.1.15,2013-03-28 15:40:00,
2013-03-28 08:45:00,43.3,-99.9,20.00,ESE,119,0.0,3.0,255,0.00,,,0.00,0,Wunderground v.1.15,2013-03-28 15:45:00,
2013-03-28 08:55:00,42.4,-99.9,20.00,ESE,119,1.0,3.0,255,0.00,,,0.00,0,Wunderground v.1.15,2013-03-28 15:55:00,
2013-03-28 09:00:00,42.5,-99.9,20.00,ESE,119,0.0,0.0,255,0.00,,,0.00,0,Wunderground v.1.15,2013-03-28 16:00:00,
2013-03-28 09:10:00,43.9,-99.9,20.00,ESE,119,0.0,0.0,255,0.00,,,0.00,0,Wunderground v.1.15,2013-03-28 16:10:00,
2013-03-28 09:15:00,43.9,-99.9,20.00,ESE,119,0.0,0.0,255,0.00,,,0.00,0,Wunderground v.1.15,2013-03-28 16:15:00,
2013-03-28 09:25:00,44.4,-99.9,20.00,ESE,119,0.0,0.0,255,0.00,,,0.00,0,Wunderground v.1.15,2013-03-28 16:25:00,
2013-03-28 09:30:00,45.2,-99.9,20.00,ESE,119,0.0,0.0,255,0.00,,,0.00,0,Wunderground v.1.15,2013-03-28 16:30:00,
2013-03-28 09:40:00,46.6,-99.9,20.00,ESE,119,0.0,2.0,255,0.00,,,0.00,0,Wunderground v.1.15,2013-03-28 16:40:00,
2013-03-28 09:45:00,46.5,-99.9,20.00,ESE,119,0.0,2.0,255,0.00,,,0.00,0,Wunderground v.1.15,2013-03-28 16:45:00,
2013-03-28 09:55:00,46.1,-99.9,20.00,ESE,119,0.0,2.0,255,0.00,,,0.00,0,Wunderground v.1.15,2013-03-28 16:55:00,
2013-03-28 10:00:00,46.9,-99.9,20.00,ESE,119,0.0,0.0,255,0.00,,,0.00,0,Wunderground v.1.15,2013-03-28 17:00:00,
2013-03-28 10:10:00,48.4,-99.9,20.00,ESE,119,0.0,0.0,255,0.00,,,0.00,0,Wunderground v.1.15,2013-03-28 17:10:00,
2013-03-28 10:15:00,50.2,-99.9,20.00,ESE,119,1.0,1.0,255,0.00,,,0.00,0,Wunderground v.1.15,2013-03-28 17:15:00,
2013-03-28 10:25:00,51.8,-99.9,20.00,ESE,119,0.0,1.0,255,0.00,,,0.00,0,Wunderground v.1.15,2013-03-28 17:25:00,
2013-03-28 10:35:00,49.8,-99.9,20.00,ESE,119,0.0,2.0,255,0.00,,,0.00,0,Wunderground v.1.15,2013-03-28 17:35:00,
2013-03-28 10:40:00,51.1,-99.9,20.00,ESE,119,0.0,2.0,255,0.00,,,0.00,0,Wunderground v.1.15,2013-03-28 17:40:00,
2013-03-28 10:50:00,51.1,-99.9,20.00,ESE,119,0.0,2.0,255,0.00,,,0.00,0,Wunderground v.1.15,2013-03-28 17:50:00,
2013-03-28 11:00:00,52.9,-99.9,20.00,ESE,116,3.0,3.0,255,0.00,,,0.00,0,Wunderground v.1.15,2013-03-28 18:00:00,
2013-03-28 11:10:00,53.3,-99.9,20.00,SW,222,2.0,2.0,255,0.00,,,0.00,0,Wunderground v.1.15,2013-03-28 18:10:00,
2013-03-28 11:15:00,62.9,-99.9,20.00,WNW,286,5.0,5.0,255,0.00,,,0.00,0,Wunderground v.1.15,2013-03-28 18:15:00,
2013-03-28 11:25:00,56.3,-99.9,20.00,WNW,289,3.0,5.0,255,0.00,,,0.00,0,Wunderground v.1.15,2013-03-28 18:25:00,
2013-03-28 11:35:00,67.7,-99.9,20.00,WNW,283,4.0,4.0,255,0.00,,,0.00,0,Wunderground v.1.15,2013-03-28 18:35:00,
2013-03-28 11:45:00,73.1,-99.9,20.00,WNW,299,3.0,3.0,255,0.00,,,0.00,0,Wunderground v.1.15,2013-03-28 18:45:00,
2013-03-28 11:55:00,75.0,-99.9,20.00,WNW,292,5.0,5.0,255,0.00,,,0.00,0,Wunderground v.1.15,2013-03-28 18:55:00,
2013-03-28 12:00:00,73.7,-99.9,20.00,WNW,302,1.0,1.0,255,0.00,,,0.00,0,Wunderground v.1.15,2013-03-28 19:00:00,
2013-03-28 12:10:00,71.2,-99.9,20.00,West,280,0.0,0.0,255,0.00,,,0.00,0,Wunderground v.1.15,2013-03-28 19:10:00,
2013-03-28 12:15:00,70.0,-99.9,20.00,WSW,255,4.0,4.0,255,0.00,,,0.00,0,Wunderground v.1.15,2013-03-28 19:15:00,
2013-03-28 12:25:00,64.7,-99.9,20.00,WSW,242,3.0,3.0,255,0.00,,,0.00,0,Wunderground v.1.15,2013-03-28 19:25:00,
2013-03-28 12:35:00,66.5,-99.9,20.00,WSW,256,2.0,5.0,255,0.00,,,0.00,0,Wunderground v.1.15,2013-03-28 19:35:00,
2013-03-28 12:40:00,65.2,-99.9,20.00,WSW,252,3.0,3.0,255,0.00,,,0.00,0,Wunderground v.1.15,2013-03-28 19:40:00,
2013-03-28 12:50:00,61.2,-99.9,20.00,ESE,112,1.0,1.0,255,0.00,,,0.00,0,Wunderground v.1.15,2013-03-28 19:50:00,
2013-03-28 13:00:00,67.7,-99.9,20.00,West,279,4.0,4.0,255,0.00,,,0.00,0,Wunderground v.1.15,2013-03-28 20:00:00,
2013-03-28 13:10:00,68.6,-99.9,20.00,West,261,5.0,5.0,255,0.00,,,0.00,0,Wunderground v.1.15,2013-03-28 20:10:00,
2013-03-28 13:15:00,67.3,-99.9,20.00,WSW,243,2.0,5.0,255,0.00,,,0.00,0,Wunderground v.1.15,2013-03-28 20:15:00,
2013-03-28 13:25:00,65.4,-99.9,20.00,WSW,241,2.0,3.0,255,0.00,,,0.00,0,Wunderground v.1.15,2013-03-28 20:25:00,
2013-03-28 13:35:00,64.3,-99.9,20.00,West,261,5.0,5.0,255,0.00,,,0.00,0,Wunderground v.1.15,2013-03-28 20:35:00,
2013-03-28 13:45:00,63.9,-99.9,20.00,SW,229,4.0,7.0,255,0.00,,,0.00,0,Wunderground v.1.15,2013-03-28 20:45:00,
2013-03-28 13:55:00,60.6,-99.9,20.00,WSW,241,3.0,3.0,255,0.00,,,0.00,0,Wunderground v.1.15,2013-03-28 20:55:00,
2013-03-28 14:00:00,62.3,-99.9,20.00,SW,232,9.0,9.0,255,0.00,,,0.00,0,Wunderground v.1.15,2013-03-28 21:00:00,
2013-03-28 14:10:00,61.3,-99.9,20.00,SW,225,7.0,7.0,255,0.00,,,0.00,0,Wunderground v.1.15,2013-03-28 21:10:00,
2013-03-28 14:20:00,61.1,-99.9,20.00,South,188,3.0,3.0,255,0.00,,,0.00,0,Wunderground v.1.15,2013-03-28 21:20:00,
2013-03-28 14:30:00,60.5,-99.9,20.00,SSW,199,6.0,6.0,255,0.00,,,0.00,0,Wunderground v.1.15,2013-03-28 21:30:00,
2013-03-28 14:40:00,59.2,-99.9,20.00,SW,234,7.0,7.0,255,0.00,,,0.00,0,Wunderground v.1.15,2013-03-28 21:40:00,
2013-03-28 14:45:00,58.6,-99.9,20.00,SSW,204,7.0,7.0,255,0.00,,,0.00,0,Wunderground v.1.15,2013-03-28 21:45:00,
2013-03-28 14:55:00,57.2,-99.9,20.00,WSW,249,6.0,9.0,255,0.00,,,0.00,0,Wunderground v.1.15,2013-03-28 21:55:00,
2013-03-28 15:00:00,58.2,-99.9,20.00,SW,225,8.0,8.0,255,0.00,,,0.00,0,Wunderground v.1.15,2013-03-28 22:00:00,
2013-03-28 15:10:00,57.5,-99.9,20.00,SW,221,5.0,5.0,255,0.00,,,0.00,0,Wunderground v.1.15,2013-03-28 22:10:00,
2013-03-28 15:15:00,58.1,-99.9,20.00,WSW,241,6.0,6.0,255,0.00,,,0.00,0,Wunderground v.1.15,2013-03-28 22:15:00,
2013-03-28 15:25:00,58.7,-99.9,20.00,SW,233,7.0,7.0,255,0.00,,,0.00,0,Wunderground v.1.15,2013-03-28 22:25:00,
2013-03-28 15:35:00,57.1,-99.9,20.00,SSW,211,8.0,8.0,255,0.00,,,0.00,0,Wunderground v.1.15,2013-03-28 22:35:00,
2013-03-28 15:40:00,57.9,-99.9,20.00,SW,234,4.0,13.0,255,0.00,,,0.00,0,Wunderground v.1.15,2013-03-28 22:40:00,
2013-03-28 15:50:00,57.1,-99.9,20.00,SW,217,5.0,13.0,255,0.00,,,0.00,0,Wunderground v.1.15,2013-03-28 22:50:00,
2013-03-28 16:00:00,56.9,-99.9,20.00,SW,231,5.0,5.0,255,0.00,,,0.00,0,Wunderground v.1.15,2013-03-28 23:00:00,
2013-03-28 16:10:00,57.0,-99.9,20.00,WNW,282,1.0,1.0,255,0.00,,,0.00,0,Wunderground v.1.15,2013-03-28 23:10:00,
2013-03-28 16:15:00,58.3,-99.9,20.00,WSW,256,5.0,5.0,255,0.00,,,0.00,0,Wunderground v.1.15,2013-03-28 23:15:00,
2013-03-28 16:25:00,57.8,-99.9,20.00,WSW,249,1.0,5.0,255,0.00,,,0.00,0,Wunderground v.1.15,2013-03-28 23:25:00,
2013-03-28 16:35:00,57.7,-99.9,20.00,West,269,5.0,6.0,255,0.00,,,0.00,0,Wunderground v.1.15,2013-03-28 23:35:00,
2013-03-28 16:45:00,58.1,-99.9,20.00,SW,230,3.0,5.0,255,0.00,,,0.00,0,Wunderground v.1.15,2013-03-28 23:45:00,
2013-03-28 16:55:00,57.4,-99.9,20.00,SW,231,5.0,7.0,255,0.00,,,0.00,0,Wunderground v.1.15,2013-03-28 23:55:00,
2013-03-28 17:00:00,57.8,-99.9,20.00,WSW,245,3.0,3.0,255,0.00,,,0.00,0,Wunderground v.1.15,2013-03-29 00:00:00,
2013-03-28 17:10:00,58.2,-99.9,20.00,SW,235,7.0,7.0,255,0.00,,,0.00,0,Wunderground v.1.15,2013-03-29 00:10:00,
2013-03-28 17:20:00,58.3,-99.9,20.00,SW,235,3.0,3.0,255,0.00,,,0.00,0,Wunderground v.1.15,2013-03-29 00:20:00,
2013-03-28 17:30:00,58.1,-99.9,20.00,WSW,243,2.0,2.0,255,0.00,,,0.00,0,Wunderground v.1.15,2013-03-29 00:30:00,
2013-03-28 17:40:00,56.9,-99.9,20.00,SW,233,6.0,6.0,255,0.00,,,0.00,0,Wunderground v.1.15,2013-03-29 00:40:00,
2013-03-28 17:50:00,56.4,-99.9,20.00,WSW,240,6.0,6.0,255,0.00,,,0.00,0,Wunderground v.1.15,2013-03-29 00:50:00,
2013-03-28 18:00:00,56.3,-99.9,20.00,WSW,238,4.0,4.0,255,0.00,,,0.00,0,Wunderground v.1.15,2013-03-29 01:00:00,
2013-03-28 18:10:00,59.0,-99.9,20.00,West,263,4.0,4.0,255,0.00,,,0.00,0,Wunderground v.1.15,2013-03-29 01:10:00,
2013-03-28 18:20:00,56.2,-99.9,20.00,SSW,208,3.0,3.0,255,0.00,,,0.00,0,Wunderground v.1.15,2013-03-29 01:20:00,
2013-03-28 18:30:00,53.6,-99.9,20.00,SSW,193,5.0,5.0,255,0.00,,,0.00,0,Wunderground v.1.15,2013-03-29 01:30:00,
2013-03-28 18:40:00,53.7,-99.9,20.00,SSW,204,4.0,9.0,255,0.00,,,0.00,0,Wunderground v.1.15,2013-03-29 01:40:00,
2013-03-28 18:45:00,52.9,-99.9,20.00,SSW,202,4.0,9.0,255,0.00,,,0.00,0,Wunderground v.1.15,2013-03-29 01:45:00,
2013-03-28 18:55:00,52.8,-99.9,20.00,SSW,211,4.0,9.0,255,0.00,,,0.00,0,Wunderground v.1.15,2013-03-29 01:55:00,
2013-03-28 19:00:00,51.9,-99.9,20.00,SSW,211,2.0,2.0,255,0.00,,,0.00,0,Wunderground v.1.15,2013-03-29 02:00:00,
2013-03-28 19:10:00,51.9,-99.9,20.00,SSW,207,2.0,2.0,255,0.00,,,0.00,0,Wunderground v.1.15,2013-03-29 02:10:00,
2013-03-28 19:15:00,52.1,-99.9,20.00,SSW,207,0.0,2.0,255,0.00,,,0.00,0,Wunderground v.1.15,2013-03-29 02:15:00,
2013-03-28 19:25:00,51.5,-99.9,20.00,SW,235,3.0,3.0,255,0.00,,,0.00,0,Wunderground v.1.15,2013-03-29 02:25:00,
2013-03-28 19:35:00,50.9,-99.9,20.00,SW,225,2.0,2.0,255,0.00,,,0.00,0,Wunderground v.1.15,2013-03-29 02:35:00,
2013-03-28 19:40:00,50.6,-99.9,20.00,SSW,202,3.0,3.0,255,0.00,,,0.00,0,Wunderground v.1.15,2013-03-29 02:40:00,
2013-03-28 19:50:00,50.6,-99.9,20.00,SW,223,0.0,0.0,255,0.00,,,0.00,0,Wunderground v.1.15,2013-03-29 02:50:00,
2013-03-28 20:00:00,50.3,-99.9,20.00,WSW,237,4.0,4.0,255,0.00,,,0.00,0,Wunderground v.1.15,2013-03-29 03:00:00,
2013-03-28 20:10:00,51.0,-99.9,20.00,West,259,3.0,3.0,255,0.00,,,0.00,0,Wunderground v.1.15,2013-03-29 03:10:00,
2013-03-28 20:15:00,50.8,-99.9,20.00,West,259,2.0,3.0,255,0.00,,,0.00,0,Wunderground v.1.15,2013-03-29 03:15:00,
2013-03-28 20:25:00,50.3,-99.9,20.00,West,263,1.0,1.0,255,0.00,,,0.00,0,Wunderground v.1.15,2013-03-29 03:25:00,
2013-03-28 20:35:00,48.1,-99.9,20.00,WSW,252,3.0,3.0,255,0.00,,,0.00,0,Wunderground v.1.15,2013-03-29 03:35:00,
2013-03-28 20:45:00,48.3,-99.9,20.00,WSW,242,4.0,4.0,255,0.00,,,0.00,0,Wunderground v.1.15,2013-03-29 03:45:00,
2013-03-28 20:55:00,47.6,-99.9,20.00,SW,234,4.0,4.0,255,0.00,,,0.00,0,Wunderground v.1.15,2013-03-29 03:55:00,
2013-03-28 21:00:00,47.8,-99.9,20.00,SW,232,3.0,3.0,255,0.00,,,0.00,0,Wunderground v.1.15,2013-03-29 04:00:00,
2013-03-28 21:05:00,48.2,-99.9,20.00,SW,232,1.0,3.0,255,0.00,,,0.00,0,Wunderground v.1.15,2013-03-29 04:05:00,
2013-03-28 21:10:00,47.7,-99.9,20.00,SW,231,4.0,4.0,255,0.00,,,0.00,0,Wunderground v.1.15,2013-03-29 04:10:00,
2013-03-28 21:15:00,46.5,-99.9,20.00,SW,230,1.0,4.0,255,0.00,,,0.00,0,Wunderground v.1.15,2013-03-29 04:15:00,
2013-03-28 21:25:00,45.6,-99.9,20.00,SSE,147,4.0,4.0,255,0.00,,,0.00,0,Wunderground v.1.15,2013-03-29 04:25:00,
2013-03-28 21:30:00,46.1,-99.9,20.00,SSE,147,3.0,3.0,255,0.00,,,0.00,0,Wunderground v.1.15,2013-03-29 04:30:00,
2013-03-28 21:40:00,46.1,-99.9,20.00,SSE,147,1.0,1.0,255,0.00,,,0.00,0,Wunderground v.1.15,2013-03-29 04:40:00,
2013-03-28 21:50:00,46.5,-99.9,20.00,SSE,149,3.0,3.0,255,0.00,,,0.00,0,Wunderground v.1.15,2013-03-29 04:50:00,
2013-03-28 22:00:00,46.3,-99.9,20.00,SSE,154,1.0,1.0,255,0.00,,,0.00,0,Wunderground v.1.15,2013-03-29 05:00:00,
2013-03-28 22:10:00,43.9,-99.9,20.00,SSE,154,1.0,1.0,255,0.00,,,0.00,0,Wunderground v.1.15,2013-03-29 05:10:00,
2013-03-28 22:20:00,44.9,-99.9,20.00,SSE,154,0.0,0.0,255,0.00,,,0.00,0,Wunderground v.1.15,2013-03-29 05:20:00,
2013-03-28 22:30:00,45.9,-99.9,20.00,SSE,154,0.0,0.0,255,0.00,,,0.00,0,Wunderground v.1.15,2013-03-29 05:30:00,
2013-03-28 22:40:00,44.4,-99.9,20.00,SSE,154,0.0,0.0,255,0.00,,,0.00,0,Wunderground v.1.15,2013-03-29 05:40:00,
2013-03-28 22:50:00,46.1,-99.9,20.00,SSE,154,0.0,0.0,255,0.00,,,0.00,0,Wunderground v.1.15,2013-03-29 05:50:00,
2013-03-28 23:00:00,44.9,-99.9,20.00,SSE,154,0.0,0.0,255,0.00,,,0.00,0,Wunderground v.1.15,2013-03-29 06:00:00,
2013-03-28 23:10:00,43.8,-99.9,20.00,SSE,154,0.0,0.0,255,0.00,,,0.00,0,Wunderground v.1.15,2013-03-29 06:10:00,
2013-03-28 23:15:00,44.7,-99.9,20.00,SSE,154,0.0,0.0,255,0.00,,,0.00,0,Wunderground v.1.15,2013-03-29 06:15:00,
2013-03-28 23:25:00,44.5,-99.9,20.00,SSE,154,0.0,0.0,255,0.00,,,0.00,0,Wunderground v.1.15,2013-03-29 06:25:00,
2013-03-28 23:35:00,45.0,-99.9,20.00,SSE,154,0.0,0.0,255,0.00,,,0.00,0,Wunderground v.1.15,2013-03-29 06:35:00,
2013-03-28 23:40:00,44.8,-99.9,20.00,SSE,154,0.0,0.0,255,0.00,,,0.00,0,Wunderground v.1.15,2013-03-29 06:40:00,
2013-03-28 23:50:00,44.3,-99.9,20.00,SSE,154,3.0,3.0,255,0.00,,,0.00,0,Wunderground v.1.15,2013-03-29 06:50:00,